Location: Devore Heights
(34.2372°N, 117.4156°W)
Time: 01:39:19
(UTC+00:00)

Vanguard 2 Rocket - Pass Details

Date: 13 September 2024
Orbit: 553 x 3298 km, 32.9° (Epoch: 09 October)

Event Time Altitude Azimuth Distance (km) Brightness Sun altitude
Exits shadow 08:57:43 42° 103° (ESE) 3,033 9.4 -48.6°
Drops below altitude 10° 09:08:57 10° 79° (E) 5,760 11.3 -47.4°
Sets 09:14:12 0° 76° (ENE) 7,041 11.9 -46.8°
